STARLINK-30780, 58140

Orbit data source: Space-Track

STARLINK-30780, 58140 is a payload satellite owned by SpaceX/Seattle (US) in LEO that was launched on Sun, 22 Oct 2023 UTC via an FALCON 9 launch vehicle from the Air Force Eastern Test Range (AFETR). Payload-class satellites include a variety of spacecraft equipped with specific instruments for various scientific and technological missions. These include communications satellites like Starlink; space stations such as the ISS; scientific satellites like the Hubble; Earth observation satellites from companies like Planet Labs, Umbra, and HawkEye 360; GPS; miniature CubeSats for education and research; and military/defense satellites.

Loading next visibility...
Identifier
58140, 2023-162Y
Orbit
LEO
Country
Flag of USUS
Related business
Manufacturer
SpaceX/Seattle
Mission
Operational Commercial Communications
Bus & Motor
STARLINK V2M, Unknown motor
Mass
730 kg wet, ~700 kg dry
Launch date (UTC)
2023-10-22 (2 years ago)
Launch vehicle
FALCON 9
Launch site
Air Force Eastern Test Range (AFETR)
Object type
Payload
Rocket body
Debris
Shape & HBR
Box + 2 Pan, 17.7 m
Radar Cross Section
33.884 m², Large (>1 m²)

Expand to show TLE details & history
Last TLE update: 22 hours ago

TLE from 22 hours ago
0 STARLINK-30780
1 58140U 23162Y   25348.71320438  .00000482  00000-0  50741-4 0  9997
2 58140  43.0027 235.1305 0000966 267.2886  92.7846 15.02529077119516
Epoch: 2025-12-14T17:07Z
TLE epoch observation values (Epoch: 2025-12-14T17:07:00.858Z)
Latitude
-0°
Longitude
-105.24525°
Altitude
558.912 km
Speed
7.584 km/s
True Right ascension
15h 40m 31s
True Declination
0° 00' 00"
Sunlit
Object was in daylight at epoch
Visualization orbit readout
Latitude
Unknown
Longitude
Unknown
Altitude
Unknown
Speed
Unknown
Apparent Right ascension
Unknown
Apparent Declination
Unknown
Sunlit
N/A
Visualization observer readout
Local Sidereal Time
13:19:56
Azimuth
Unknown
Elevation
Unknown
Doppler factor
Unknown
Orbital elements
Apogee altitude
561.695 km
Perigee altitude
560.354 km
Semi-major axis
6,939.161 km
Eccentricity
0.0001
Inclination
43.0027°
RAAN
235.1305°
Arg. of periapsis
267.2886°
True anomaly
92.79566°
Mean anomaly
92.7846°
Eccentric anomaly
92.79013°
Mean motion
3.75476 °/min
Orbital period
95.88 mins
BSTAR
0.000050741
Loading maneuver chart data...
Computing Atmospheric mass density...
Loading historical data...
Loading historical data...
Loading historical data...
Loading historical data...
Loading historical data...
Loading historical data...
Loading historical data...

Documentation

Showing up to 5 results
|